Location: La Brionne
(46.1728°N, 1.7849°E)
Time: 16:58:24
(UTC+00:00)

Cosmos 1544 Rocket - Pass Details

Date: 29 October 2021
Orbit: 603 x 632 km, 82.5° (Epoch: 27 November)

Event Time Altitude Azimuth Distance (km) Brightness Sun altitude
Rises 04:32:43 0° 349° (N) 2,902 6.9 -20.7°
Reaches altitude 10° 04:34:58 10° 348° (NNW) 1,987 6.0 -20.3°
Maximum altitude 04:39:21 75° 263° (W) 637 3.4 -19.6°
Drops below altitude 10° 04:43:40 10° 179° (S) 1,954 6.1 -18.8°
Sets 04:45:51 0° 177° (S) 2,850 7.0 -18.5°
